• MPC Preparation (Info)

  • MPEC 2007-E60 : 2007 EH26

    The following Minor Planet Electronic Circular may be linked-to from your own Web pages, but must not otherwise be redistributed electronically.

    A form allowing access to any MPEC is at the bottom of this page.


    Read MPEC 2007-E59 Read MPEC 2007-E61


    M.P.E.C. 2007-E60                                Issued 2007 Mar. 12, 21:13 UT
    
         The Minor Planet Electronic Circulars contain information on unusual
             minor planets and routine data on comets.  They are published
       on behalf of Commission 20 of the International Astronomical Union by the
              Minor Planet Center, Smithsonian Astrophysical Observatory,
                              Cambridge, MA 02138, U.S.A.
    
                 Prepared using the Tamkin Foundation Computer Network
    
                                  MPC@CFA.HARVARD.EDU
              URL http://cfa-www.harvard.edu/iau/mpc.html  ISSN 1523-6714
    
                                       2007 EH26
    
    Observations:
         K07E26H* C2007 03 10.42309 13 04 21.10 -02 00 57.5          20.6 V EE060G96
         K07E26H  C2007 03 10.43190 13 04 24.45 -02 01 33.6          20.7 V EE060G96
         K07E26H  C2007 03 10.44059 13 04 27.76 -02 02 08.9          20.7 V EE060G96
         K07E26H  C2007 03 10.44936 13 04 31.15 -02 02 44.9          21.1 V EE060G96
         K07E26H  C2007 03 10.48760 13 04 45.91 -02 05 21.8          20.8 V EE060G96
         K07E26H  C2007 03 10.49169 13 04 47.49 -02 05 38.3          21.1 V EE060G96
         K07E26H  C2007 03 10.49587 13 04 49.22 -02 05 56.7          19.6 V EE060G96
         K07E26H  C2007 03 10.50004 13 04 50.77 -02 06 13.4          20.6 V EE060G96
         K07E26H  C2007 03 11.10683 13 09 21.85 -02 51 24.6                 EE060J95
         K07E26H  C2007 03 11.11629 13 09 26.21 -02 52 07.3                 EE060J95
         K07E26H  C2007 03 11.12742 13 09 31.22 -02 53 00.5                 EE060J95
         K07E26H  C2007 03 11.13685 13 09 35.52 -02 53 45.9          20.3 R EE060J95
         K07E26H  C2007 03 11.27224513 10 43.70 -03 04 29.2          21.4   EE060H55
         K07E26H  C2007 03 11.27764213 10 46.18 -03 04 56.1          21.5   EE060H55
         K07E26H  C2007 03 11.28296213 10 48.63 -03 05 21.7          21.2   EE060H55
         K07E26H  C2007 03 11.35598 13 11 24.72 -03 11 16.4          20.2 V EE060G96
         K07E26H  C2007 03 11.36142 13 11 27.27 -03 11 44.1          20.2 V EE060G96
         K07E26H  C2007 03 11.36687 13 11 29.83 -03 12 11.2          20.6 V EE060G96
         K07E26H  C2007 03 11.37236 13 11 32.42 -03 12 39.2          20.5 V EE060G96
         K07E26H tC2007 03 11.52387 13 12 45.65 -03 25 32.2          20.4 V EE060291
         K07E26H tC2007 03 11.52764 13 12 47.36 -03 25 51.8          20.1 V EE060291
         K07E26H tC2007 03 11.53132 13 12 49.35 -03 26 12.3          20.1 V EE060291
         K07E26H  C2007 03 11.95767 13 16 49.51 -04 05 34.8                 EE060246
         K07E26H  C2007 03 11.95810 13 16 49.75 -04 05 36.7                 EE060246
         K07E26H  C2007 03 11.95867 13 16 49.98 -04 05 41.2                 EE060246
         K07E26H  C2007 03 11.95914 13 16 50.53 -04 05 44.4                 EE060246
         K07E26H  C2007 03 11.96006 13 16 50.93 -04 05 47.8                 EE060246
         K07E26H  C2007 03 12.06167 13 17 47.81 -04 15 42.8          20.1 R EE060473
         K07E26H  C2007 03 12.06376 13 17 49.02 -04 15 55.1          20.2 R EE060473
         K07E26H  C2007 03 12.06585 13 17 50.24 -04 16 07.1          20.0 R EE060473
    
    Observer details:
    246 Klet Observatory-KLENOT.  Observers J. Ticha, M. Tichy.  Measurer M. Tichy.
        1.06-m KLENOT Telescope + CCD.
    291 LPL/Spacewatch II.  Observer T. H. Bressi.  1.8-m f/2.7 reflector + CCD.
    473 Remanzacco.  Observers L. Donato, V. Gonano, E. Guido, G. Sostero.  0.45-m
        f/4.4 Newtonian reflector + CCD.
    G96 Mt. Lemmon Survey.  Observer R. A. Kowalski.  Measurers E. C. Beshore,
        E. J. Christensen, G. J. Garradd, A. R. Gibbs, A. D. Grauer, R. E. Hill,
        R. A. Kowalski, S. M. Larson, R. H. McNaught.  1.5-m reflector + CCD.
    H55 Astronomical Research Observatory, Charleston.  Observer R. Holmes.
        0.81-m f/4.0 astrograph + CCD.
    J95 Great Shefford.  Observer P. Birtwhistle.  0.40-m f/6.0 Schmidt-Cassegrain
        + CCD.
    
    Orbital elements:
    2007 EH26                                                Earth MOID = 0.0057 AU
    Epoch 2007 Apr. 10.0 TT = JDT 2454200.5                 MPC
    M 351.05554              (2000.0)            P               Q
    n   0.36222582     Peri.  268.78577     -0.08307215     +0.99652431
    a   1.9490207      Node   356.43132     -0.87019942     -0.07556578
    e   0.6792823      Incl.    5.70740     -0.48564594     -0.03505869
    P   2.72           H   24.2           G   0.15           U   8
    Residuals in seconds of arc
    070310 G96  0.3+  0.2+    070311 J95  0.2-  0.3+    070311 291  1.4-  0.6+
    070310 G96  0.2+  0.0     070311 J95  0.1+  0.2-    070311 291  0.8+  0.8-
    070310 G96  0.1+  0.2+    070311 H55  0.9+  0.1+    070311 246  0.1-  0.3+
    070310 G96  0.5+  0.1+    070311 H55  0.5+  0.2-    070311 246  0.1-  0.9+
    070310 G96  0.1-  0.4+    070311 H55  0.1+  0.4+    070311 246  1.4-  0.3-
    070310 G96  0.4-  0.7+    070311 G96  0.5+  0.4+    070311 246 (3.0+  0.8-)
    070310 G96  1.0+  0.4-    070311 G96  0.4+  0.0     070311 246  1.3+  1.1+
    070310 G96  0.3-  0.1+    070311 G96  0.3+  0.3+    070312 473  0.6-  0.8-
    070311 J95  1.2-  1.5-    070311 G96  0.3+  0.1-    070312 473  0.2-  0.7-
    070311 J95  0.2+  0.7+    070311 291  1.1+  0.6+    070312 473  0.4+  0.3-
    
    Ephemeris:
    2007 EH26                a,e,i = 1.95, 0.68, 6                   q = 0.6251
    Date    TT    R. A. (2000) Decl.     Delta      r     Elong.  Phase     V
    2007 03 11    13 08.54   -02 41.8    0.103    1.086   152.8    24.7    20.6
    2007 03 12    13 17.19   -04 08.4    0.0917   1.075   151.3    26.3    20.4
    2007 03 13    13 28.31   -05 59.0    0.0803   1.063   149.2    28.6    20.1
    2007 03 14    13 43.09   -08 23.9    0.0692   1.052   145.9    32.0    19.9
    2007 03 15    14 03.51   -11 38.3    0.0587   1.041   141.1    36.8    19.6
    2007 03 16    14 33.07   -16 02.4    0.0491   1.029   133.9    44.1    19.4
    2007 03 17    15 17.67   -21 51.8    0.0411   1.018   123.1    55.0    19.3
    2007 03 18    16 25.41   -28 32.5    0.0356   1.006   107.6    70.5    19.4
    2007 03 19    17 57.55   -33 26.7    0.0340   0.995    88.5    89.6    20.0
    2007 03 20    19 32.28   -33 50.7    0.0367   0.984    69.9   108.1    21.0
    2007 03 21    20 44.48   -31 02.2    0.0429   0.972    55.6   122.3    22.3
    
    Kyle E. Smalley              (C) Copyright 2007 MPC           M.P.E.C. 2007-E60
    

    Read MPEC 2007-E59 Read MPEC 2007-E61


    MPEC number:

    Enter an MPEC number in one of the following forms:

    • 1997-B01 (the full form)
    • J97B01 (the packed version of the full form)
    • B01 (the abbreviated form)